This is the latest recevied weather packets stored in our database for station/object WY1B. If no packets are shown the sender has not sent any weather packets the latest 10 day(s).
| Time | Temp. | Humidity | Pressure | Rain* | Wind** | Luminosity | Snow |
|---|---|---|---|---|---|---|---|
| 1787645787 | 31.67° C | 37% | 1005 hPa | 0 mm | - | 0 W/m² | - |
| 1787645483 | 31.67° C | 38% | 1004.9 hPa | 0 mm | - | 0 W/m² | - |
| 1787645178 | 31.67° C | 36% | 1004.9 hPa | 0 mm | - | 0 W/m² | - |
| 1787644874 | 31.67° C | 37% | 1005 hPa | 0 mm | - | 0 W/m² | - |
| 1787644574 | 31.67° C | 40% | 1004.8 hPa | 0 mm | - | 0 W/m² | - |
| 1787644270 | 32.22° C | 36% | 1004.7 hPa | 0 mm | - | 0 W/m² | - |
| 1787643970 | 32.22° C | 35% | 1005 hPa | 0 mm | - | 0 W/m² | - |
| 1787643665 | 32.22° C | 36% | 1004.9 hPa | 0 mm | - | 0 W/m² | - |
| 1787643361 | 32.22° C | 37% | 1004.8 hPa | 0 mm | - | 0 W/m² | - |
| 1787643057 | 32.22° C | 36% | 1005 hPa | 0 mm | - | 0 W/m² | - |
| 1787642753 | 32.78° C | 39% | 1005 hPa | 0 mm | - | 0 W/m² | - |
| 1787642453 | 32.78° C | 36% | 1005 hPa | 0 mm | - | 0 W/m² | - |
| 1787642150 | 32.78° C | 35% | 1005.1 hPa | 0 mm | - | 0 W/m² | - |
| 1787641851 | 32.78° C | 35% | 1005 hPa | 0 mm | - | 0 W/m² | - |
| 1787641550 | 32.78° C | 37% | 1004.9 hPa | 0 mm | - | 0 W/m² | - |
| 1787641249 | 32.78° C | 38% | 1005.1 hPa | 0 mm | - | 0 W/m² | - |
| 1787640945 | 33.33° C | 35% | 1005 hPa | 0 mm | - | 0 W/m² | - |
| 1787640641 | 32.78° C | 35% | 1005.1 hPa | 0 mm | - | 0 W/m² | - |
| 1787640340 | 32.22° C | 36% | 1004.9 hPa | 0 mm | - | 0 W/m² | - |
| 1787640036 | 32.22° C | 36% | 1005 hPa | 0 mm | - | 0 W/m² | - |
| 1787639732 | 32.78° C | 36% | 1005 hPa | 0 mm | - | 0 W/m² | - |
| 1787639428 | 32.78° C | 35% | 1005.1 hPa | 0 mm | - | 0 W/m² | - |
| 1787639121 | 32.78° C | 34% | 1005 hPa | 0 mm | - | 0 W/m² | - |
| 1787638816 | 32.78° C | 34% | 1005 hPa | 0 mm | - | 0 W/m² | - |
| 1787638512 | 32.78° C | 33% | 1005.1 hPa | 0 mm | - | 0 W/m² | - |
* Rain latest hour (hover to see other rain measurements)
** Current wind speed in m/s (hover to see current wind gust speed)